NIMBUS 2 DEB, 59975

Orbit data source: Space-Track

NIMBUS 2 DEB, 59975 is space debris in SSO originally from a launch on Sun, 15 May 1966 UTC launched from the Air Force Western Test Range (AFWTR). Debris objects in space refer to the collection of defunct objects orbiting the Earth. Examples of debris include non-operational satellites, rocket bodies, and fragments generated from explosions, collisions, or faulty payload assembly.

Loading next visibility...
Identifier
59975, 1966-040CE
Orbit
SSO
Country
Flag of USUS
Related business
Manufacturer
Unknown
Mission
Spacecraft
Bus & Motor
Unknown
Mass
Unknown
Launch date (UTC)
1966-05-15 (59 years ago)
Launch vehicle
Unknown
Launch site
Air Force Western Test Range (AFWTR)
Object type
Payload
Rocket body
Debris
Shape & HBR
Unknown shape, 0.1 m
Radar Cross Section
Small (<0.1 m²)

Expand to show TLE details & history
Last TLE update: 1 day ago

TLE from 1 day ago
0 NIMBUS 2 DEB
1 59975U 66040CE  25295.38298727  .00003137  00000-0  54897-2 0  9999
2 59975 100.1313  88.7883 0039800  15.2598 344.9722 13.43745533298387
Epoch: 2025-10-22T09:11Z
TLE epoch observation values (Epoch: 2025-10-22T09:11:30.100Z)
Latitude
-0.00002°
Longitude
-80.1445°
Altitude
1,069.397 km
Speed
7.331 km/s
True Right ascension
05h 55m 09s
True Declination
0° 00' 00"
Sunlit
Object was in daylight at epoch
Visualization orbit readout
Latitude
Unknown
Longitude
Unknown
Altitude
Unknown
Speed
Unknown
Apparent Right ascension
Unknown
Apparent Declination
Unknown
Sunlit
N/A
Visualization observer readout
Local Sidereal Time
14:48:59
Azimuth
Unknown
Elevation
Unknown
Doppler factor
Unknown
Orbital elements
Apogee altitude
1,122.425 km
Perigee altitude
1,062.958 km
Semi-major axis
7,470.828 km
Eccentricity
0.00398
Inclination
100.1313°
RAAN
88.7883°
Arg. of periapsis
15.2598°
True anomaly
344.85337°
Mean anomaly
344.9722°
Eccentric anomaly
344.91284°
Mean motion
3.36117 °/min
Orbital period
107.11 mins
BSTAR
0.0054897
Loading maneuver chart data...
Computing Atmospheric mass density...
Loading historical data...
Loading historical data...
Loading historical data...
Loading historical data...
Loading historical data...
Loading historical data...
Loading historical data...

Documentation

Showing up to 5 results
|